This is the latest recevied weather packets stored in our database for station/object KE8DDT-7. If no packets are shown the sender has not sent any weather packets the latest 10 day(s).
| Time | Temp. | Humidity | Pressure | Rain* | Wind** | Luminosity | Snow |
|---|---|---|---|---|---|---|---|
| 1777856986 | 10.56° C | 66% | 1001 hPa | 0 mm | - | 0 W/m² | - |
| 1777856386 | 11.11° C | 65% | 1000.9 hPa | 0 mm | - | 0 W/m² | - |
| 1777855925 | 11.11° C | 65% | 1001 hPa | 0 mm | - | 0 W/m² | - |
| 1777855625 | 11.11° C | 65% | 1001.1 hPa | 0 mm | - | 0 W/m² | - |
| 1777855325 | 11.11° C | 65% | 1001.1 hPa | 0 mm | - | 0 W/m² | - |
| 1777855025 | 11.11° C | 65% | 1001.2 hPa | 0 mm | - | 0 W/m² | - |
| 1777854725 | 11.67° C | 65% | 1001.2 hPa | 0 mm | - | 0 W/m² | - |
| 1777854425 | 11.67° C | 64% | 1001.3 hPa | 0 mm | - | 5 W/m² | - |
| 1777854125 | 11.67° C | 64% | 1001.2 hPa | 0 mm | - | 11 W/m² | - |
| 1777853825 | 11.67° C | 64% | 1001.4 hPa | 0 mm | - | 18 W/m² | - |
| 1777853525 | 11.67° C | 64% | 1001.5 hPa | 0 mm | - | 18 W/m² | - |
| 1777853225 | 11.67° C | 63% | 1001.5 hPa | 0 mm | - | 18 W/m² | - |
| 1777852925 | 11.67° C | 63% | 1001.5 hPa | 0 mm | - | 16 W/m² | - |
| 1777852625 | 11.67° C | 62% | 1001.5 hPa | 0 mm | - | 14 W/m² | - |
| 1777852325 | 12.22° C | 62% | 1001.4 hPa | 0 mm | - | 21 W/m² | - |
| 1777852025 | 12.22° C | 61% | 1001.5 hPa | 0 mm | - | 23 W/m² | - |
| 1777851725 | 12.22° C | 61% | 1001.6 hPa | 0 mm | - | 28 W/m² | - |
| 1777851425 | 12.22° C | 60% | 1001.6 hPa | 0 mm | - | 32 W/m² | - |
| 1777851125 | 12.22° C | 60% | 1001.5 hPa | 0 mm | - | 33 W/m² | - |
| 1777850800 | 12.78° C | 60% | 1001.5 hPa | 0 mm | - | 30 W/m² | - |
| 1777850259 | 12.78° C | 59% | 1001.5 hPa | 0 mm | - | 23 W/m² | - |
| 1777849959 | 13.33° C | 58% | 1001.4 hPa | 0 mm | - | 26 W/m² | - |
| 1777849659 | 13.33° C | 57% | 1001.6 hPa | 0 mm | - | 25 W/m² | - |
| 1777849359 | 13.89° C | 56% | 1001.7 hPa | 0 mm | - | 32 W/m² | - |
| 1777848881 | 13.89° C | 55% | 1001.6 hPa | 0 mm | - | 54 W/m² | - |
* Rain latest hour (hover to see other rain measurements)
** Current wind speed in m/s (hover to see current wind gust speed)